When you browse on this site, cookies collect data to enhance your experience and personalize the content and advertising you see.
Visit our Privacy Policy to learn more. By continuing to use the site, you agree to this use of cookies and data.
  • In Portugal
  • List of Countries
  • For 7 days
  • Water Temperature
  • Satellite Maps
  • Weather Map
  • Weather Widgets
  • user-avatar
    Login

    Hourly Weather Glasgow

    Today, 18 July, Thursday

    Time Temperature Precipitation Wind Pressure Humidity
    00:00 +14°C° 0 mm 5 mps 751 mmHg 99%
    01:00 +14°C° 0.7 mm 5 mps 750 mmHg 99%
    02:00 +14°C° 0.7 mm 4 mps 750 mmHg 98%
    03:00 +14°C° 0.7 mm 4 mps 750 mmHg 98%
    04:00 +14°C° 0.2 mm 3 mps 750 mmHg 94%
    05:00 +14°C° 0.2 mm 3 mps 750 mmHg 90%
    06:00 +15°C° 0 mm 2 mps 750 mmHg 89%
    07:00 +16°C° 0.1 mm 2 mps 750 mmHg 84%
    08:00 +17°C° 0.1 mm 2 mps 750 mmHg 79%
    09:00 +18°C° 0.1 mm 2 mps 750 mmHg 73%
    10:00 +18°C° 0.6 mm 3 mps 750 mmHg 74%
    11:00 +19°C° 0.6 mm 4 mps 750 mmHg 75%
    12:00 +19°C° 0.6 mm 5 mps 750 mmHg 76%
    13:00 +19°C° 1.7 mm 5 mps 750 mmHg 77%
    14:00 +19°C° 1.7 mm 5 mps 750 mmHg 78%
    15:00 +19°C° 1.7 mm 5 mps 750 mmHg 78%
    16:00 +19°C° 1.5 mm 5 mps 750 mmHg 80%
    17:00 +17°C° 1.5 mm 5 mps 750 mmHg 82%
    18:00 +18°C° 1.5 mm 4 mps 750 mmHg 83%
    19:00 +15°C° 0.5 mm 4 mps 750 mmHg 85%
    20:00 +14°C° 0.5 mm 4 mps 751 mmHg 87%
    21:00 +13°C° 0.5 mm 4 mps 751 mmHg 89%
    22:00 +12°C° 0 mm 4 mps 751 mmHg 90%
    23:00 +12°C° 0 mm 4 mps 752 mmHg 91%

    Tomorrow, 19 July, Friday

    Time Temperature Precipitation Wind Pressure Humidity
    00:00 +11°C° 0 mm 4 mps 752 mmHg 92%
    01:00 +11°C° 0 mm 4 mps 752 mmHg 92%
    02:00 +10°C° 0 mm 4 mps 752 mmHg 92%
    03:00 +10°C° 0 mm 3 mps 752 mmHg 92%
    04:00 +11°C° 0 mm 3 mps 752 mmHg 91%
    05:00 +12°C° 0 mm 3 mps 752 mmHg 89%
    06:00 +12°C° 0 mm 3 mps 752 mmHg 87%
    07:00 +14°C° 0 mm 4 mps 752 mmHg 81%
    08:00 +15°C° 0 mm 4 mps 753 mmHg 75%
    09:00 +18°C° 0 mm 4 mps 753 mmHg 69%
    10:00 +17°C° 0.1 mm 5 mps 753 mmHg 70%
    11:00 +19°C° 0.1 mm 5 mps 752 mmHg 70%
    12:00 +19°C° 0.1 mm 6 mps 752 mmHg 70%
    13:00 +19°C° 0.1 mm 6 mps 752 mmHg 72%
    14:00 +17°C° 0.1 mm 6 mps 752 mmHg 73%
    15:00 +17°C° 0.1 mm 6 mps 752 mmHg 75%
    16:00 +16°C° 0.1 mm 6 mps 751 mmHg 80%
    17:00 +16°C° 0.1 mm 6 mps 751 mmHg 84%
    18:00 +15°C° 0.1 mm 6 mps 750 mmHg 89%
    19:00 +14°C° 0.3 mm 5 mps 750 mmHg 92%
    20:00 +14°C° 0.3 mm 4 mps 750 mmHg 95%
    21:00 +13°C° 0.3 mm 4 mps 750 mmHg 98%
    22:00 +13°C° 0.4 mm 3 mps 749 mmHg 98%
    23:00 +13°C° 0.4 mm 3 mps 749 mmHg 98%

    Day after tomorrow, 20 July, Saturday

    Time Temperature Precipitation Wind Pressure Humidity
    00:00 +14°C° 0.4 mm 2 mps 749 mmHg 98%
    01:00 +13°C° 0.4 mm 3 mps 748 mmHg 98%
    02:00 +13°C° 0.4 mm 4 mps 748 mmHg 97%
    03:00 +13°C° 0.4 mm 4 mps 748 mmHg 96%
    04:00 +13°C° 0.1 mm 4 mps 748 mmHg 95%
    05:00 +13°C° 0.1 mm 4 mps 748 mmHg 94%
    06:00 +13°C° 0.1 mm 4 mps 749 mmHg 93%
    07:00 +14°C° 0 mm 4 mps 749 mmHg 88%
    08:00 +16°C° 0 mm 3 mps 750 mmHg 84%
    09:00 +17°C° 0 mm 3 mps 750 mmHg 80%
    10:00 +18°C° 0 mm 2 mps 750 mmHg 76%
    11:00 +19°C° 0 mm 2 mps 751 mmHg 72%
    12:00 +21°C° 0 mm 1 mps 751 mmHg 69%
    13:00 +19°C° 0.2 mm 2 mps 752 mmHg 73%
    14:00 +19°C° 0.2 mm 2 mps 752 mmHg 78%
    15:00 +18°C° 0.2 mm 3 mps 752 mmHg 83%
    16:00 +17°C° 0.1 mm 2 mps 753 mmHg 86%
    17:00 +16°C° 0.1 mm 2 mps 753 mmHg 89%
    18:00 +15°C° 0.1 mm 2 mps 754 mmHg 93%
    19:00 +15°C° 0.2 mm 1 mps 754 mmHg 94%
    20:00 +15°C° 0.2 mm 1 mps 755 mmHg 94%
    21:00 +15°C° 0.2 mm 1 mps 756 mmHg 95%
    22:00 +14°C° 0.1 mm 0 mps 756 mmHg 95%
    23:00 +14°C° 0.1 mm 0 mps 756 mmHg 95%

    21 July, Sunday

    Time Temperature Precipitation Wind Pressure Humidity
    00:00 +13°C° 0.1 mm 0 mps 757 mmHg 95%
    01:00 +13°C° 0 mm 0 mps 757 mmHg 95%
    02:00 +13°C° 0 mm 0 mps 757 mmHg 95%
    03:00 +14°C° 0 mm 0 mps 757 mmHg 95%
    04:00 +14°C° 0 mm 0 mps 758 mmHg 94%
    05:00 +14°C° 0 mm 0 mps 758 mmHg 94%
    06:00 +15°C° 0 mm 1 mps 758 mmHg 93%
    07:00 +16°C° 0 mm 1 mps 758 mmHg 91%
    08:00 +16°C° 0 mm 1 mps 759 mmHg 88%
    09:00 +17°C° 0 mm 2 mps 759 mmHg 85%
    10:00 +18°C° 0 mm 3 mps 759 mmHg 79%
    11:00 +19°C° 0 mm 3 mps 759 mmHg 73%
    12:00 +20°C° 0 mm 4 mps 759 mmHg 67%
    13:00 +19°C° 0 mm 5 mps 759 mmHg 69%
    14:00 +19°C° 0 mm 6 mps 759 mmHg 72%
    15:00 +17°C° 0 mm 7 mps 759 mmHg 74%
    16:00 +17°C° 0 mm 7 mps 759 mmHg 76%
    17:00 +17°C° 0 mm 7 mps 758 mmHg 78%
    18:00 +17°C° 0 mm 7 mps 758 mmHg 81%
    19:00 +16°C° 0.1 mm 6 mps 758 mmHg 84%
    20:00 +16°C° 0.1 mm 6 mps 758 mmHg 88%
    21:00 +15°C° 0.1 mm 5 mps 758 mmHg 91%
    22:00 +15°C° 0.3 mm 6 mps 758 mmHg 93%
    23:00 +15°C° 0.3 mm 7 mps 758 mmHg 94%

    22 July, Monday

    Time Temperature Precipitation Wind Pressure Humidity
    00:00 +15°C° 0.3 mm 7 mps 758 mmHg 96%
    01:00 +15°C° 0.1 mm 7 mps 757 mmHg 95%
    02:00 +15°C° 0.1 mm 8 mps 757 mmHg 94%
    03:00 +15°C° 0.1 mm 8 mps 756 mmHg 93%
    04:00 +16°C° 0.1 mm 8 mps 756 mmHg 93%
    05:00 +16°C° 0.1 mm 9 mps 756 mmHg 93%
    06:00 +16°C° 0.1 mm 9 mps 756 mmHg 93%
    07:00 +17°C° 0 mm 9 mps 756 mmHg 90%
    08:00 +18°C° 0 mm 10 mps 756 mmHg 88%
    09:00 +18°C° 0 mm 10 mps 757 mmHg 86%
    10:00 +19°C° 0 mm 10 mps 757 mmHg 83%
    11:00 +21°C° 0 mm 9 mps 757 mmHg 81%
    12:00 +22°C° 0 mm 9 mps 758 mmHg 78%
    13:00 +22°C° 0 mm 8 mps 758 mmHg 76%
    14:00 +23°C° 0 mm 8 mps 758 mmHg 73%
    15:00 +23°C° 0 mm 8 mps 758 mmHg 71%
    16:00 +23°C° 0 mm 8 mps 759 mmHg 73%
    17:00 +23°C° 0 mm 8 mps 759 mmHg 75%
    18:00 +23°C° 0 mm 7 mps 759 mmHg 77%
    19:00 +21°C° 0 mm 7 mps 759 mmHg 82%
    20:00 +20°C° 0 mm 7 mps 759 mmHg 87%
    21:00 +19°C° 0 mm 6 mps 760 mmHg 92%
    22:00 +17°C° 0 mm 6 mps 760 mmHg 92%
    23:00 +17°C° 0 mm 6 mps 760 mmHg 93%

    23 July, Tuesday

    Time Temperature Precipitation Wind Pressure Humidity
    00:00 +16°C° 0 mm 6 mps 760 mmHg 93%
    01:00 +16°C° 0 mm 6 mps 760 mmHg 94%
    02:00 +15°C° 0 mm 6 mps 760 mmHg 94%
    03:00 +15°C° 0 mm 6 mps 760 mmHg 95%
    04:00 +16°C° 0 mm 6 mps 760 mmHg 93%
    05:00 +16°C° 0 mm 6 mps 760 mmHg 92%
    06:00 +16°C° 0 mm 6 mps 760 mmHg 91%
    07:00 +19°C° 0 mm 6 mps 760 mmHg 86%
    08:00 +20°C° 0 mm 6 mps 760 mmHg 80%
    09:00 +22°C° 0 mm 6 mps 760 mmHg 75%
    10:00 +22°C° 0 mm 6 mps 760 mmHg 71%
    11:00 +23°C° 0 mm 6 mps 760 mmHg 68%
    12:00 +24°C° 0 mm 6 mps 760 mmHg 64%
    13:00 +23°C° 0 mm 6 mps 760 mmHg 64%
    14:00 +23°C° 0 mm 6 mps 759 mmHg 65%
    15:00 +23°C° 0 mm 6 mps 759 mmHg 65%
    16:00 +22°C° 0 mm 6 mps 759 mmHg 70%
    17:00 +22°C° 0 mm 5 mps 759 mmHg 75%
    18:00 +21°C° 0 mm 5 mps 758 mmHg 80%
    19:00 +20°C° 0 mm 5 mps 758 mmHg 83%
    20:00 +19°C° 0 mm 5 mps 758 mmHg 87%
    21:00 +17°C° 0 mm 4 mps 758 mmHg 91%
    22:00 +17°C° 0.3 mm 4 mps 758 mmHg 91%
    23:00 +16°C° 0.3 mm 5 mps 758 mmHg 92%
    Show more